[[{"header":{"parameterUnit":"m.s-1","parameterCategory":1,"la1":30.2991,"la2":30.254,"lo1":-89.0895,"lo2":-89.0444,"dy":0.0017,"dx":0.0017,"nx":28,"ny":28,"refTime":"2023-03-18T21:00:00:Z","depth":0,"parameterNumber":2,"parameterNumberName":"U-component_of_WINDS"},"data":[0,0,0,0,0,0,0,0,0,0,0,0,0,0,0,0,0,0,0,0,0,0,0,0,0,0,0,0,0,0,0,0,0,0,0,0,0,0,0,0,0,0,0,0,0,0,0,0,0,0,0,0,0,0,0,0,0,0,1.8414,1.8414,0,1.8382,1.8382,1.8381,1.8348,1.8348,1.8347,1.8347,1.8312,1.8311,1.831,0,0,0,0,0,0,0,0,0,0,0,0,0,1.8446,1.8446,1.8414,1.8414,1.8414,1.8382,1.8382,1.8381,1.8348,1.8348,1.8347,1.8347,1.8312,1.8311,1.831,0,0,0,0,0,0,0,0,0,0,0,0,0,1.8425,1.8446,1.8414,1.8393,1.8391,1.8382,1.8382,1.8381,1.8349,1.8348,1.8347,1.8347,1.8312,1.8311,1.831,1.8319,0,0,1.8308,1.8308,0,0,0,0,0,0,0,0,1.8426,1.8424,1.8397,1.8395,1.8392,1.8369,1.838,1.836,1.8349,1.8365,1.8347,1.8346,1.8331,1.8328,1.8324,1.8317,1.8315,1.8308,1.8307,1.8307,1.8307,0,0,0,0,0,0,0,1.8428,1.8425,1.8401,1.8397,1.8394,1.8385,1.8381,1.8376,1.8352,1.8363,1.8361,1.8358,1.8329,1.8325,1.8323,1.8315,1.8308,1.8307,1.8307,1.8306,1.8314,1.8314,0,0,0,0,0,0,1.8433,1.8426,1.8402,1.84,1.8408,1.8385,1.8381,1.8377,1.8352,1.8347,1.8358,1.8356,1.8326,1.8324,1.8321,1.8329,1.8307,1.8306,1.8306,1.8313,1.8314,1.8314,0,0,0,0,0,0,1.8433,1.8431,1.8404,1.8413,1.8409,1.8385,1.8381,1.8377,1.8372,1.8348,1.8343,1.8358,1.8326,1.8322,1.832,1.8328,1.8306,1.8305,1.8312,1.8313,1.8314,1.8345,0,0,0,0,0,0,1.8434,1.8431,1.8434,1.8413,1.8408,1.8403,1.8381,1.8376,1.8371,1.8368,1.8346,1.8342,1.8325,1.8321,1.8319,1.8326,1.8304,1.8311,1.8313,1.8314,1.8344,1.8347,1.8351,0,0,0,0,0,1.8436,1.8444,1.8435,1.8432,1.8412,1.8404,1.8401,1.8382,1.8371,1.8374,1.8359,1.8343,1.8328,1.8321,1.8318,1.8325,1.8311,1.8312,1.8314,1.8342,1.8347,1.8351,0,0,0,0,0,0,1.8465,1.8441,1.843,1.8432,1.842,1.8398,1.8401,1.8387,1.8378,1.8375,1.8351,1.8347,1.8347,1.8336,1.8329,1.8332,1.8317,1.8318,1.8339,1.8343,1.8347,1.8349,1.8304,0,0,0,0,0,1.8472,1.8469,1.8447,1.845,1.8445,1.8424,1.842,1.8407,1.8393,1.8388,1.8373,1.836,1.8352,1.8347,1.8339,1.8342,1.8337,1.8346,1.8349,1.8353,1.8353,1.8354,1.8358,1.8319,1.8319,1.8319,0,0,1.8486,1.8472,1.8471,1.8456,1.8445,1.8441,1.842,1.8417,1.8413,1.8387,1.8384,1.8372,1.8356,1.8357,1.8356,1.8348,1.8363,1.8354,1.8357,1.8356,1.8356,1.836,1.8363,1.832,1.832,1.832,0,0,1.8509,1.8499,1.85,1.8491,1.8476,1.8462,1.8463,1.8443,1.8435,1.8431,1.8411,1.8407,1.8394,1.8384,1.8377,1.8398,1.8382,1.8396,1.8414,1.8415,1.8418,1.8421,1.8428,1.8431,1.8397,1.8397,1.8397,0,1.8528,1.8522,1.8503,1.8501,1.8495,1.8472,1.8474,1.8465,1.8448,1.8444,1.8435,1.8419,1.8407,1.8405,1.841,1.8405,1.8405,1.8398,1.842,1.8422,1.8424,1.8431,1.8433,1.8399,1.8399,1.8399,1.8398,0,1.8546,1.8542,1.8545,1.853,1.8524,1.8524,1.8505,1.8502,1.8489,1.8476,1.8473,1.8458,1.8446,1.8445,1.8432,1.8442,1.8437,1.8424,1.8408,1.843,1.8435,1.8438,1.8401,1.8401,1.84,1.84,0,0,1.8585,1.856,1.8562,1.8555,1.8537,1.8534,1.8533,1.8522,1.852,1.8509,1.8507,1.8498,1.8487,1.8479,1.8465,1.8466,1.8484,1.8453,1.8453,1.8459,1.8493,1.8501,1.8505,1.8474,1.8474,1.8475,1.8494,0,1.8604,1.8601,1.8585,1.8587,1.8583,1.8562,1.8561,1.855,1.8539,1.8534,1.8521,1.8514,1.85,1.8495,1.8496,1.8482,1.849,1.848,1.8471,1.8471,1.8475,1.8508,1.8517,1.8535,1.8496,1.8496,1.8496,0,1.8626,1.8618,1.8619,1.8603,1.86,1.86,1.8589,1.8585,1.8572,1.8564,1.8556,1.8541,1.8538,1.8524,1.852,1.8514,1.851,1.8502,1.8503,1.85,1.8484,1.8505,1.8541,1.8543,1.85,1.85,1.8499,0,1.8654,1.8643,1.8643,1.8638,1.8618,1.8618,1.861,1.8597,1.8592,1.8583,1.8579,1.857,1.8564,1.8557,1.854,1.8531,1.8538,1.8522,1.853,1.8531,1.8531,1.8531,1.8566,1.853,1.853,1.853,1.853,0,1.8676,1.8678,1.8655,1.8655,1.8656,1.8638,1.864,1.8629,1.8618,1.8615,1.8597,1.8594,1.8572,1.8567,1.8554,1.8552,1.855,1.8543,1.8539,1.8544,1.8545,1.854,1.8538,1.8531,1.8531,1.8531,1.8531,0,1.8707,1.8692,1.869,1.8672,1.8668,1.867,1.8654,1.8653,1.8641,1.8638,1.8636,1.8617,1.8611,1.8593,1.8582,1.8573,1.8575,1.8568,1.8579,1.8577,1.8585,1.8584,1.8617,1.862,1.8584,1.8584,1.8584,0,1.8722,1.8723,1.8706,1.8703,1.8696,1.8692,1.8687,1.8669,1.8665,1.8651,1.8652,1.8644,1.8637,1.8627,1.8612,1.8603,1.8595,1.8608,1.8594,1.8599,1.8595,1.8595,1.8594,1.861,1.8611,1.8611,1.8611,0,1.875,1.8743,1.8737,1.8729,1.8724,1.8717,1.8708,1.8707,1.8687,1.8683,1.8677,1.8671,1.866,1.8653,1.8642,1.8633,1.8619,1.8616,1.8617,1.8622,1.8628,1.8624,1.8586,1.8615,1.8615,1.8614,1.8614,1.8614,1.8772,1.8773,1.8761,1.8755,1.8748,1.874,1.8739,1.8727,1.8722,1.8712,1.8702,1.8697,1.8684,1.8669,1.8661,1.8656,1.8649,1.865,1.8651,1.8651,1.8653,1.863,1.8654,1.8654,1.8654,1.8654,1.8654,0,1.8799,1.8791,1.8786,1.8775,1.8771,1.876,1.875,1.8747,1.8743,1.8733,1.8727,1.872,1.8713,1.8698,1.8689,1.8688,1.8681,1.8686,1.8686,1.8684,1.8661,1.866,1.8692,1.8692,1.8692,1.8692,1.8692,1.8692,1.8812,1.8812,1.8804,1.8799,1.8791,1.8786,1.8782,1.8775,1.8767,1.876,1.8755,1.8746,1.8734,1.8724,1.8717,1.8713,1.871,1.8717,1.8711,1.8689,1.8685,1.8682,1.8681,1.8717,1.8717,1.8734,1.8734,1.8734]},{"header":{"parameterUnit":"m.s-1","parameterCategory":1,"la1":30.2991,"la2":30.254,"lo1":-89.0895,"lo2":-89.0444,"dy":0.0017,"dx":0.0017,"nx":28,"ny":28,"refTime":"2023-03-18T21:00:00:Z","depth":0,"parameterNumber":3,"parameterNumberName":"V-component_of_WINDS"},"data":[0,0,0,0,0,0,0,0,0,0,0,0,0,0,0,0,0,0,0,0,0,0,0,0,0,0,0,0,0,0,0,0,0,0,0,0,0,0,0,0,0,0,0,0,0,0,0,0,0,0,0,0,0,0,0,0,0,0,-7.1605,-7.1606,0,-7.1722,-7.1724,-7.1725,-7.1659,-7.1656,-7.1653,-7.165,-7.1764,-7.177,-7.1776,0,0,0,0,0,0,0,0,0,0,0,0,0,-7.1319,-7.1324,-7.1605,-7.1606,-7.1608,-7.1722,-7.1724,-7.1725,-7.166,-7.1656,-7.1652,-7.1648,-7.1762,-7.1769,-7.1777,0,0,0,0,0,0,0,0,0,0,0,0,0,-7.144,-7.1326,-7.1605,-7.1589,-7.1589,-7.1722,-7.1724,-7.1726,-7.1661,-7.1656,-7.1651,-7.1647,-7.176,-7.1769,-7.1778,-7.1931,0,0,-7.1806,-7.1809,0,0,0,0,0,0,0,0,-7.1433,-7.1451,-7.159,-7.159,-7.159,-7.1671,-7.1665,-7.1794,-7.1662,-7.1633,-7.165,-7.1644,-7.1737,-7.1748,-7.178,-7.1936,-7.1941,-7.1806,-7.1812,-7.1816,-7.1818,0,0,0,0,0,0,0,-7.1425,-7.1445,-7.1651,-7.1592,-7.1592,-7.1574,-7.1586,-7.1689,-7.1711,-7.1635,-7.1631,-7.1646,-7.1736,-7.1771,-7.1782,-7.1943,-7.1806,-7.1814,-7.182,-7.1823,-7.2229,-7.2234,0,0,0,0,0,0,-7.1418,-7.1439,-7.1647,-7.1655,-7.1499,-7.1584,-7.1597,-7.165,-7.1709,-7.1714,-7.165,-7.1643,-7.1758,-7.1772,-7.1786,-7.1968,-7.1816,-7.1824,-7.1829,-7.2224,-7.223,-7.2236,0,0,0,0,0,0,-7.1412,-7.1438,-7.1643,-7.1546,-7.157,-7.1594,-7.1654,-7.1655,-7.169,-7.1721,-7.1723,-7.1683,-7.1755,-7.1773,-7.1895,-7.1971,-7.1828,-7.1837,-7.2217,-7.2225,-7.2233,-7.2334,0,0,0,0,0,0,-7.1405,-7.1436,-7.1496,-7.1547,-7.1576,-7.1752,-7.1659,-7.1661,-7.1707,-7.1698,-7.1752,-7.1756,-7.1753,-7.1882,-7.1904,-7.1981,-7.1844,-7.221,-7.2221,-7.223,-7.2324,-7.2345,-7.2362,0,0,0,0,0,-7.1395,-7.1518,-7.1499,-7.1524,-7.1651,-7.1757,-7.1773,-7.1768,-7.1713,-7.1773,-7.1792,-7.1754,-7.196,-7.1895,-7.192,-7.2,-7.2206,-7.2218,-7.223,-7.2316,-7.2341,-7.2362,0,0,0,0,0,0,-7.1473,-7.1525,-7.1504,-7.1649,-7.1699,-7.1745,-7.182,-7.1795,-7.186,-7.1849,-7.1838,-7.1851,-7.1978,-7.2001,-7.1929,-7.2151,-7.2074,-7.2091,-7.2131,-7.2155,-7.2174,-7.2165,-7.1851,0,0,0,0,0,-7.1507,-7.1591,-7.1631,-7.1754,-7.1781,-7.1797,-7.1842,-7.1834,-7.1885,-7.1905,-7.1934,-7.1983,-7.2058,-7.2108,-7.2179,-7.2328,-7.2337,-7.2395,-7.2414,-7.243,-7.2444,-7.2523,-7.2549,-7.2275,-7.2275,-7.2275,0,0,-7.1579,-7.1617,-7.167,-7.1771,-7.1809,-7.1894,-7.1815,-7.1907,-7.1969,-7.1919,-7.2036,-7.2059,-7.2113,-7.2249,-7.231,-7.2272,-7.2522,-7.2445,-7.2457,-7.2463,-7.2538,-7.2564,-7.2587,-7.2283,-7.2282,-7.228,0,0,-7.1752,-7.179,-7.1897,-7.1937,-7.1997,-7.2006,-7.2032,-7.2083,-7.2096,-7.2215,-7.2178,-7.2251,-7.2381,-7.2421,-7.2458,-7.2647,-7.2614,-7.267,-7.2769,-7.2847,-7.2868,-7.2887,-7.2953,-7.2977,-7.2685,-7.2686,-7.2686,0,-7.1832,-7.196,-7.1955,-7.2051,-7.2096,-7.2056,-7.2163,-7.2202,-7.2281,-7.2312,-7.2269,-7.2432,-7.2465,-7.2609,-7.2656,-7.2688,-7.2715,-7.2664,-7.2866,-7.2885,-7.2903,-7.2965,-7.299,-7.2692,-7.2691,-7.2691,-7.269,0,-7.2056,-7.2145,-7.2224,-7.2303,-7.2357,-7.2458,-7.2466,-7.2521,-7.2509,-7.2522,-7.2642,-7.2681,-7.2759,-7.2793,-7.2781,-7.2936,-7.291,-7.2867,-7.2789,-7.2935,-7.2994,-7.3018,-7.2701,-7.2699,-7.2697,-7.2695,0,0,-7.228,-7.2356,-7.2385,-7.242,-7.2483,-7.2551,-7.2649,-7.2728,-7.2774,-7.283,-7.2911,-7.3023,-7.2983,-7.3026,-7.3018,-7.3086,-7.3232,-7.3034,-7.3035,-7.3068,-7.3402,-7.3434,-7.3462,-7.3211,-7.3215,-7.3219,-7.3397,0,-7.2456,-7.2631,-7.263,-7.279,-7.2871,-7.2835,-7.2921,-7.2967,-7.2983,-7.3052,-7.3068,-7.3148,-7.309,-7.3115,-7.3181,-7.32,-7.3298,-7.3187,-7.3284,-7.3288,-7.3271,-7.3493,-7.3526,-7.3693,-7.342,-7.3424,-7.3427,0,-7.2685,-7.2751,-7.292,-7.2971,-7.3005,-7.3082,-7.3153,-7.3221,-7.3273,-7.3279,-7.3327,-7.3309,-7.3407,-7.3327,-7.3461,-7.3386,-7.3426,-7.3441,-7.3447,-7.3455,-7.3365,-7.3505,-7.3746,-7.377,-7.3464,-7.3461,-7.3458,0,-7.2831,-7.2961,-7.3079,-7.311,-7.3173,-7.3228,-7.3256,-7.3303,-7.335,-7.3412,-7.3442,-7.3514,-7.3552,-7.3608,-7.3608,-7.3551,-7.3744,-7.3664,-7.375,-7.375,-7.3791,-7.3788,-7.404,-7.3819,-7.3818,-7.3818,-7.3817,0,-7.3027,-7.3132,-7.3145,-7.3218,-7.3333,-7.333,-7.3444,-7.3466,-7.3509,-7.3584,-7.3556,-7.3626,-7.3624,-7.3695,-7.3696,-7.3806,-7.3824,-7.383,-7.3829,-7.3832,-7.3831,-7.3857,-7.3845,-7.3825,-7.3823,-7.3822,-7.3821,0,-7.3209,-7.3222,-7.3348,-7.3398,-7.3412,-7.3495,-7.3536,-7.3604,-7.3617,-7.3712,-7.3734,-7.3754,-7.3836,-7.3843,-7.3938,-7.3938,-7.4071,-7.4058,-7.4055,-7.4052,-7.4136,-7.4128,-7.4413,-7.4449,-7.4205,-7.4208,-7.421,0,-7.3333,-7.3413,-7.3471,-7.352,-7.3552,-7.3631,-7.3679,-7.3679,-7.373,-7.3795,-7.3855,-7.3935,-7.3998,-7.4131,-7.4152,-7.4224,-7.4211,-7.4306,-7.4222,-7.4222,-7.4211,-7.4206,-7.4213,-7.4322,-7.4325,-7.4327,-7.4329,0,-7.3551,-7.3553,-7.3625,-7.37,-7.3759,-7.3817,-7.3871,-7.3912,-7.3918,-7.3976,-7.4061,-7.4111,-7.4208,-7.4287,-7.4357,-7.4384,-7.4357,-7.4356,-7.4379,-7.4382,-7.4376,-7.4379,-7.4098,-7.4349,-7.4347,-7.4345,-7.4344,-7.4343,-7.3706,-7.3775,-7.3827,-7.3908,-7.3949,-7.4001,-7.4067,-7.4089,-7.416,-7.4241,-7.4236,-7.4329,-7.4377,-7.447,-7.4502,-7.4573,-7.4541,-7.4575,-7.4583,-7.4591,-7.46,-7.4367,-7.4586,-7.4585,-7.4585,-7.4584,-7.4584,0,-7.3922,-7.3954,-7.4028,-7.4106,-7.4169,-7.4141,-7.4199,-7.4253,-7.4336,-7.4385,-7.4449,-7.4545,-7.4622,-7.465,-7.4724,-7.4776,-7.4765,-7.4795,-7.479,-7.4797,-7.4625,-7.4597,-7.4802,-7.4802,-7.4802,-7.4802,-7.4802,-7.4802,-7.4041,-7.4157,-7.4166,-7.43,-7.4331,-7.4424,-7.4459,-7.4506,-7.4545,-7.4654,-7.4719,-7.4737,-7.4777,-7.4854,-7.4922,-7.4928,-7.4956,-7.4991,-7.4992,-7.4831,-7.4809,-7.4788,-7.4761,-7.4998,-7.4998,-7.5157,-7.5159,-7.516]}]]